Wind_Speed
9 5 2 4 4 5 5 6 6 4 4 4 3 3 2 1 4 4 4 5 8 6 5 9 9 10 8 4 9 17 20 19 20 21 23 26 29 30 29 30 33 36 37 36 36 36 35 34 32 29 26 24 24 25 27 28 28 28 27 26 25 25 24 24 24 23 23 22 21 20 19 18 16 15 14 12 10 8 7 7 7 6 7 7 6 5
6 5 4 5 6 6 5 5 4 2 3 2 2 2 1 2 4 5 4 4 5 6 6 8 8 9 8 5 9 16 16 16 21 23 25 28 29 30 31 30 32 33 34 33 34 36 36 35 34 32 30 27 26 25 27 29 29 29 28 27 26 26 26 26 25 24 24 23 22 21 19 17 16 16 14 12 9 8 7 8 8 8 8 7 6 5
3 3 4 6 6 4 3 4 4 2 2 2 2 2 0 2 4 5 4 4 2 5 4 4 6 9 9 7 9 15 16 19 27 28 28 30 29 30 32 32 31 30 30 32 35 36 37 37 37 35 33 30 28 26 26 28 29 30 30 29 28 27 27 27 26 25 24 23 22 21 19 17 16 15 14 11 9 8 8 8 8 9 8 7 7 5
3 4 6 7 6 5 1 3 6 3 1 2 3 2 2 2 1 2 4 5 2 5 3 4 5 7 6 5 7 15 21 22 26 27 25 27 29 32 34 34 33 31 31 33 34 37 38 38 38 38 37 33 30 29 27 27 29 31 31 30 30 29 29 28 27 26 24 23 22 21 20 18 16 15 14 12 11 10 9 9 9 9 9 8 7 6
4 6 4 5 6 5 2 1 5 3 2 2 3 4 3 2 3 4 4 4 2 3 3 3 1 5 4 6 5 11 18 18 20 21 21 25 29 30 31 31 33 34 34 34 34 37 39 40 40 40 39 36 34 32 30 28 28 30 31 31 30 30 30 29 28 26 25 24 23 22 21 19 18 16 16 15 14 13 12 11 9 9 9 8 8 7
4 6 2 5 4 5 4 2 3 5 1 3 4 7 7 5 5 5 3 5 5 4 4 2 2 5 4 6 6 6 11 12 16 19 21 26 28 28 28 30 33 34 35 36 36 37 38 40 41 41 41 39 37 35 32 29 28 28 30 31 31 31 30 30 29 28 26 25 24 23 22 21 20 20 19 18 17 15 14 11 10 10 9 9 8 8
2 3 4 5 4 5 4 3 4 6 4 2 5 7 9 8 6 6 1 2 1 2 4 1 3 4 4 3 6 6 8 11 13 16 21 27 28 29 31 32 33 34 35 37 37 36 38 40 41 43 43 42 40 36 33 31 29 28 28 29 31 31 31 31 31 30 28 27 26 24 23 22 21 21 20 18 16 15 14 12 11 11 10 9 9 8
2 1 1 4 4 5 3 3 5 7 6 2 5 6 8 8 6 5 4 3 3 1 4 2 4 2 4 4 4 6 8 10 12 14 18 25 29 31 34 35 35 36 36 37 38 38 39 40 42 43 43 43 40 37 35 34 32 30 29 28 30 31 32 32 32 32 30 29 28 25 24 23 22 21 19 17 16 16 15 14 13 12 11 10 9 9
2 2 2 4 4 3 4 5 6 8 5 5 6 7 7 8 7 4 5 4 2 2 4 4 3 1 5 5 2 6 9 10 15 15 15 21 28 32 34 36 37 38 38 38 39 41 41 42 43 43 43 42 41 39 38 36 34 32 30 28 28 30 32 33 33 33 32 31 29 27 26 24 23 22 20 18 17 17 16 16 15 13 11 10 10 10
1 2 4 5 3 3 5 5 7 10 6 4 5 5 3 4 4 4 5 3 1 2 4 5 3 2 4 5 2 5 7 11 14 11 11 19 27 32 34 37 37 38 39 39 40 41 43 44 43 43 43 42 42 41 40 38 35 34 33 31 29 29 31 33 34 34 33 33 32 29 27 26 24 23 22 21 19 18 18 18 17 15 13 11 11 10
4 2 4 5 2 4 5 3 5 10 7 2 4 4 4 3 3 4 2 3 3 2 6 7 6 4 2 5 3 3 4 8 9 8 9 15 24 32 36 38 39 39 39 40 40 41 42 43 43 42 43 43 43 42 41 40 39 36 35 34 32 29 29 31 33 34 34 34 33 31 29 27 25 24 24 23 22 21 20 20 19 17 14 12 11 11
7 5 1 2 4 5 2 1 1 1 1 2 3 4 4 2 3 4 4 2 3 4 6 4 5 5 1 4 3 5 8 7 6 9 11 15 23 32 37 39 41 41 42 41 41 41 40 41 41 42 43 44 44 44 43 43 41 40 38 36 34 31 29 30 32 34 35 34 34 32 30 28 26 25 25 24 23 23 22 22 21 18 16 15 13 13
4 2 5 5 6 12 6 2 3 5 5 4 4 5 4 1 1 1 1 1 3 5 4 1 4 3 3 2 4 8 10 11 9 7 9 16 25 31 35 39 41 41 42 43 42 42 42 41 42 43 44 44 45 46 45 44 43 42 41 38 37 34 31 30 31 33 35 35 34 33 31 29 28 27 26 25 24 23 22 22 22 20 19 17 16 15
2 2 8 7 6 12 7 3 2 2 4 3 3 5 4 3 3 3 3 0 2 4 4 2 2 2 2 1 6 9 9 13 16 17 16 13 17 27 32 35 39 40 41 43 43 43 43 43 44 45 45 45 46 47 46 46 45 44 43 41 39 37 34 31 30 31 33 34 34 34 33 31 29 28 27 26 25 24 22 22 23 22 20 18 17 15
3 0 7 5 4 10 6 2 1 3 1 2 3 5 4 4 4 3 3 3 3 3 3 3 2 3 3 3 4 8 10 18 23 24 25 25 19 17 29 30 32 37 39 41 42 43 45 45 46 46 46 46 47 48 48 47 47 46 45 43 41 39 37 34 32 30 31 32 33 34 34 33 31 29 28 27 26 25 23 23 23 22 20 19 17 15
4 1 5 5 4 5 5 4 2 2 2 2 1 4 3 3 4 2 3 5 4 2 0 1 3 2 4 4 8 13 13 20 27 29 28 29 30 16 20 30 31 35 38 40 41 42 45 46 46 47 47 47 47 48 49 49 48 48 47 45 43 41 39 37 34 32 30 30 32 33 34 34 33 31 30 29 28 26 25 24 23 22 21 19 17 15
3 0 6 8 6 4 5 5 3 5 1 1 3 2 3 3 4 3 1 1 3 5 2 1 1 4 2 0 11 17 14 20 24 26 27 26 30 26 10 21 31 36 37 40 43 44 45 45 46 47 48 48 48 48 49 50 50 49 48 46 44 43 41 39 37 34 31 30 31 32 33 34 34 33 32 31 29 28 26 26 25 23 21 20 18 17
2 1 5 6 4 8 11 7 1 6 4 2 2 1 3 2 3 3 1 2 4 4 2 2 3 4 4 1 9 16 17 20 19 18 23 27 29 28 23 16 18 31 38 41 43 44 45 45 46 47 48 49 49 50 50 50 50 49 48 47 45 44 43 42 39 37 33 32 31 31 32 33 34 34 33 32 31 30 29 28 27 25 23 21 19 19
3 1 4 3 3 9 12 6 1 9 10 4 2 1 1 3 1 1 2 2 1 3 1 2 2 4 5 3 9 14 15 16 16 15 18 22 26 26 26 28 23 20 32 39 41 42 43 45 47 48 48 49 49 50 50 49 49 49 49 48 46 44 43 41 40 38 36 34 32 31 31 32 33 34 34 33 32 32 31 30 28 27 25 22 21 19
2 3 2 6 5 5 7 6 3 7 9 5 4 4 3 2 2 1 2 3 3 3 3 1 3 3 2 4 7 11 12 11 12 14 14 17 23 27 26 29 31 21 26 37 41 44 44 45 47 48 48 49 49 49 49 48 49 49 49 48 47 46 44 43 42 40 38 36 35 33 32 32 32 33 34 34 34 34 33 32 31 29 27 25 23 21
1 3 1 6 8 4 3 3 2 3 5 5 5 5 4 3 1 2 2 2 2 3 3 3 3 1 1 4 5 8 11 10 10 11 13 18 24 29 31 33 36 25 21 36 41 43 45 45 44 45 46 47 47 48 48 48 49 49 49 49 48 47 46 45 44 43 41 38 37 35 33 32 32 32 33 33 35 35 35 34 33 31 30 28 27 25
2 2 2 3 5 4 2 3 1 4 5 5 4 4 4 3 2 3 2 2 1 3 2 4 4 2 2 2 3 5 8 9 11 13 14 20 28 34 38 39 41 34 13 27 38 39 41 43 42 42 43 43 44 45 46 48 48 48 49 49 49 48 48 47 45 44 43 41 39 38 35 33 32 32 32 33 34 35 35 36 35 33 32 32 30 29
2 3 3 2 2 0 2 4 3 5 5 5 5 4 3 2 3 4 2 1 2 3 1 3 4 4 3 3 4 5 8 9 13 15 16 19 25 37 46 46 45 43 27 8 25 33 35 38 39 38 40 42 44 44 45 47 48 48 49 49 49 49 48 47 46 44 43 42 41 40 38 36 34 33 33 33 34 34 35 35 35 35 35 34 33 32
2 3 3 2 3 4 4 4 5 5 4 4 5 5 4 3 2 1 3 2 2 3 2 2 2 4 3 5 8 10 12 13 15 17 17 18 22 36 49 50 48 46 38 24 3 16 25 30 33 34 38 41 43 43 44 46 47 48 49 49 49 49 48 47 46 45 44 44 42 41 40 39 38 36 36 35 34 34 33 34 35 36 36 36 36 35
2 2 3 3 2 4 4 4 5 5 4 3 3 5 6 6 6 2 1 3 2 1 2 3 2 4 3 5 10 12 13 13 17 19 18 18 21 33 46 48 48 49 44 37 26 9 5 15 24 30 34 37 40 42 42 45 46 47 48 48 49 49 48 47 46 46 45 45 43 43 42 42 40 40 38 37 36 34 33 33 34 35 36 36 37 37
2 2 3 4 3 2 2 2 2 3 4 2 3 6 7 7 8 4 1 4 2 1 1 2 4 4 4 5 9 12 12 12 16 20 21 22 21 27 40 44 45 48 48 44 38 27 16 5 9 19 27 32 36 39 40 41 44 45 47 47 48 48 48 47 47 46 46 45 44 44 44 43 42 41 40 38 37 35 34 33 33 33 34 36 37 37
3 2 2 5 5 4 5 4 3 1 2 2 4 6 6 6 6 3 3 2 2 1 2 3 4 5 8 8 10 11 11 11 14 18 21 24 23 24 34 39 40 45 48 47 44 37 28 20 10 2 14 24 31 35 38 38 40 42 44 45 46 47 47 47 46 46 46 46 45 45 44 44 43 42 40 39 37 36 35 34 33 32 32 33 35 36
4 3 3 4 3 2 5 3 4 2 1 1 3 5 5 6 6 5 2 1 3 3 3 5 1 4 7 8 10 9 9 9 11 16 18 19 22 25 32 36 38 43 46 47 48 44 37 30 23 15 5 9 19 27 33 35 37 39 41 42 44 45 46 46 46 46 46 46 46 45 44 43 43 42 41 39 38 37 36 35 34 33 32 32 33 35
5 2 0 2 2 3 0 1 3 3 1 3 3 3 5 5 4 3 2 4 3 3 4 5 4 4 5 8 9 7 8 9 11 15 18 20 24 28 32 35 36 39 42 44 46 46 42 36 30 24 16 7 6 15 23 27 32 35 38 40 42 43 44 45 45 46 46 46 46 45 44 43 42 42 41 40 40 38 37 36 35 34 33 32 32 32
4 1 1 2 2 3 3 3 2 3 3 4 4 5 5 5 4 3 4 5 3 4 6 3 5 4 2 7 7 6 8 10 12 17 21 24 24 25 28 32 34 35 37 39 42 43 43 40 34 28 22 16 9 4 11 18 24 29 34 38 40 42 43 43 44 45 45 46 46 44 43 43 42 42 42 41 40 39 38 37 36 35 33 32 31 31
3 1 1 3 3 2 3 3 3 1 1 3 6 7 5 3 4 3 3 2 1 3 4 3 3 2 3 9 9 7 10 13 16 20 22 22 23 23 25 29 32 32 33 35 37 39 41 41 38 33 27 22 17 10 1 9 16 23 28 32 37 40 41 42 43 44 44 44 44 44 43 43 42 42 42 41 40 39 38 37 36 35 34 33 31 30
3 1 2 4 4 3 3 3 5 3 2 2 3 4 3 2 2 2 3 2 1 2 4 4 3 1 5 11 10 8 11 14 15 17 19 21 23 23 23 26 29 30 31 32 34 35 38 40 39 37 33 27 22 17 11 3 7 16 23 28 32 36 39 41 42 42 43 43 42 42 43 43 43 42 42 41 41 40 39 38 37 36 36 34 33 31
3 3 1 2 2 3 4 3 4 4 4 2 1 3 1 2 2 3 4 2 1 1 1 2 2 2 5 8 8 8 9 11 12 15 18 21 23 23 22 24 26 28 29 30 31 33 34 35 35 36 35 31 25 21 17 13 5 7 17 24 29 32 35 38 40 40 41 41 41 41 42 42 42 42 42 41 40 40 39 39 39 38 37 36 34 33
2 4 2 2 2 3 6 4 4 4 3 3 4 1 3 4 3 3 4 2 2 2 3 2 0 2 4 5 5 7 8 6 8 14 17 20 23 24 23 24 25 27 27 27 28 30 31 32 31 31 33 32 28 23 19 16 11 5 9 18 25 29 32 35 37 39 39 39 39 39 39 40 40 40 40 39 39 39 40 39 39 39 38 37 36 36
3 4 2 1 2 1 3 5 5 1 3 5 4 3 3 3 2 4 5 2 4 4 2 1 1 3 4 6 6 9 12 5 4 14 20 19 21 23 23 24 25 25 26 26 27 27 28 29 30 30 30 31 30 28 23 17 12 9 5 12 19 24 28 31 34 36 37 37 37 37 37 38 38 38 37 36 36 36 38 39 39 39 38 38 37 37
5 4 2 2 2 0 2 3 1 3 5 4 4 4 2 2 3 2 3 2 2 3 2 2 3 6 8 10 10 15 17 8 5 8 19 19 20 22 23 23 23 23 24 24 24 25 25 26 28 29 28 27 28 29 26 19 15 12 6 6 13 18 23 27 31 33 34 34 34 35 35 36 36 37 36 36 35 35 34 34 34 36 38 39 39 39
6 4 3 1 1 1 1 1 1 3 6 4 2 2 1 1 0 2 0 4 1 4 3 2 3 7 9 11 14 19 18 5 8 6 16 18 18 20 21 21 21 21 21 21 21 21 22 23 25 26 26 26 26 27 27 22 18 15 9 2 4 10 16 21 26 30 32 34 34 33 34 35 35 35 35 36 38 37 32 25 23 26 30 35 40 42
5 3 4 3 2 2 3 1 2 2 3 4 4 3 1 1 3 3 2 3 0 6 6 4 3 7 10 12 16 18 13 2 4 6 17 19 18 19 20 20 19 19 19 20 21 20 19 20 22 24 25 25 25 25 25 23 20 19 14 5 1 1 5 11 17 22 26 30 32 33 34 35 36 35 35 35 36 38 36 28 21 18 19 24 31 38
5 2 3 4 2 2 4 2 1 2 3 5 6 5 2 3 4 2 1 3 1 7 10 7 5 9 11 13 16 14 8 2 1 9 19 21 19 19 20 20 20 19 18 19 20 20 18 18 20 22 23 25 26 26 24 22 20 18 14 10 8 8 4 2 6 13 18 23 27 30 31 33 35 36 36 35 34 35 38 36 28 20 17 18 21 26
5 3 2 3 2 3 4 2 2 3 4 5 6 5 3 2 1 2 1 3 4 10 11 8 8 11 12 14 14 9 3 2 5 13 20 21 19 18 18 19 20 20 19 19 20 19 18 17 18 20 23 25 26 26 24 21 19 17 14 11 11 12 11 7 2 5 11 16 22 27 29 30 32 33 35 36 35 33 34 35 33 28 22 20 20 21
2 2 1 3 3 5 5 3 2 3 4 5 5 3 0 2 2 2 4 3 9 14 12 8 10 10 11 13 12 8 7 10 12 17 19 18 18 18 16 16 18 19 18 19 19 20 19 16 16 17 20 22 23 24 23 21 19 18 16 14 12 9 9 11 7 5 8 11 16 22 26 27 29 30 32 33 34 34 32 31 32 32 28 23 22 24
0 1 1 2 3 3 3 2 2 4 4 6 6 3 2 3 3 3 4 7 11 13 12 11 12 11 11 12 13 14 17 19 19 19 18 17 18 18 17 17 17 18 18 18 19 20 20 17 15 15 16 18 20 22 23 22 20 19 18 17 15 12 8 9 11 11 12 12 12 15 19 22 24 27 29 30 32 33 33 30 30 31 31 29 27 27
3 2 2 2 3 2 1 1 1 3 3 9 8 3 3 4 3 5 10 13 11 10 11 13 14 15 15 16 17 20 22 24 24 22 19 18 18 18 17 17 18 18 18 18 19 20 20 19 17 15 15 17 19 21 22 23 22 19 19 19 17 15 11 8 8 11 13 14 15 15 15 16 19 22 25 28 29 31 31 29 29 31 33 33 32 31
3 4 2 2 2 3 3 3 4 4 8 13 9 3 5 7 9 10 11 13 13 12 13 14 16 17 18 19 22 23 24 26 28 26 24 23 22 20 18 18 18 18 18 18 18 19 20 20 19 18 16 16 18 20 21 23 23 20 18 19 19 17 15 12 9 8 9 11 14 16 16 17 18 20 22 24 26 28 29 29 29 30 32 33 34 35
5 5 4 3 3 3 4 6 5 5 12 17 11 6 7 8 11 11 12 14 14 13 13 15 17 19 20 22 24 25 26 27 29 29 28 27 25 23 21 20 19 18 19 19 19 18 19 20 20 20 18 16 16 18 19 21 23 23 19 17 17 17 16 15 13 10 9 9 10 13 16 18 19 20 22 23 25 26 28 29 29 29 29 32 34 36
4 4 4 2 2 4 7 10 9 9 14 16 14 12 9 9 10 11 12 13 13 13 15 17 19 21 22 23 24 26 27 28 29 31 31 29 28 27 24 22 21 19 19 19 19 19 19 20 20 20 19 17 16 17 18 18 21 22 20 17 17 16 16 16 16 14 11 10 10 11 14 17 19 20 23 25 27 29 29 30 30 29 29 31 33 35
3 6 5 2 1 2 4 6 7 10 14 14 12 11 10 10 10 9 8 10 13 15 17 19 20 20 21 23 24 25 27 27 28 31 31 30 29 29 27 26 24 22 20 20 20 20 20 20 21 21 20 19 18 17 16 17 19 21 20 17 16 16 15 15 16 16 14 12 12 13 12 15 17 19 22 25 28 31 33 33 32 31 31 32 33 35
3 7 5 2 3 3 4 7 7 8 11 12 13 15 15 11 8 7 8 11 13 15 17 18 19 19 20 21 23 24 26 27 27 30 31 31 30 30 29 29 28 25 23 22 21 20 20 21 21 21 21 20 19 18 16 15 16 19 19 17 16 16 15 15 15 17 16 14 14 15 14 13 15 17 19 22 25 29 34 35 34 34 34 35 35 35
7 7 4 3 3 3 7 11 11 10 12 15 17 16 12 8 6 7 9 11 13 15 17 18 18 19 20 21 22 24 26 28 27 28 31 31 30 29 30 31 30 28 27 25 23 21 21 21 21 21 22 21 20 20 18 14 14 17 19 18 17 16 16 16 15 15 16 15 15 18 17 13 14 16 18 19 22 25 30 34 35 35 36 37 36 36
8 4 3 3 1 3 6 9 8 4 7 11 10 7 7 7 7 8 9 11 14 16 18 19 20 20 20 21 22 24 27 29 28 28 30 31 30 28 28 30 31 30 29 26 24 22 22 22 21 22 23 23 21 21 21 17 14 15 18 19 18 16 16 16 16 15 15 13 15 19 20 15 14 17 18 18 19 22 25 29 32 34 35 36 37 36
13 9 8 7 5 8 13 17 13 9 10 12 8 7 8 8 8 9 10 12 15 17 18 20 21 22 22 23 24 25 29 30 29 29 30 31 30 27 26 28 30 30 29 27 25 24 23 23 23 23 24 24 22 22 22 20 16 16 19 20 19 17 16 16 16 17 16 13 13 16 18 16 15 16 18 18 18 19 21 25 28 32 34 35 36 35
Wind_Direction
161 161 183 172 186 187 197 193 176 172 142 119 109 106 124 226 294 264 263 250 183 171 233 215 223 241 231 195 181 183 186 190 188 188 190 191 192 194 194 195 197 202 205 206 206 207 211 213 215 215 215 216 215 214 213 212 210 207 205 204 203 201 197 196 194 190 191 194 196 200 203 200 192 189 190 187 183 181 182 190 193 192 191 190 189 188
155 185 206 178 190 192 190 188 163 132 129 98 103 85 40 196 264 259 252 270 186 178 237 224 229 252 239 208 184 179 182 193 192 191 194 194 194 196 197 197 198 202 205 205 206 207 210 213 215 216 216 217 217 215 214 214 214 211 208 206 205 202 199 198 198 196 197 199 200 202 204 201 194 193 193 190 186 184 185 191 193 191 191 190 188 185
175 222 217 199 190 169 156 153 140 124 131 108 107 103 337 238 281 284 287 320 167 185 249 217 216 249 241 209 187 182 185 197 199 197 197 195 194 197 200 200 198 199 201 204 206 207 209 212 213 215 217 218 219 218 215 214 215 214 211 209 207 205 203 201 201 202 204 205 204 205 207 204 199 198 197 192 191 191 186 190 193 192 193 194 194 192
190 244 228 203 160 146 189 126 113 79 71 143 142 140 234 245 358 294 301 349 113 192 227 169 203 258 248 212 200 193 193 199 203 204 203 199 199 201 203 202 200 197 198 202 206 208 209 211 212 213 216 218 219 220 218 214 214 215 214 211 209 207 205 204 204 206 208 208 206 206 208 208 206 203 201 198 197 194 188 190 195 195 195 196 197 200
212 249 221 156 137 154 193 105 110 109 301 260 190 174 190 185 185 223 283 356 30 251 237 127 32 299 237 207 213 195 194 199 201 203 207 207 208 208 207 206 205 203 201 202 205 208 209 210 211 213 216 218 219 220 220 217 214 214 216 215 212 210 209 207 207 207 208 208 208 208 207 209 210 207 204 202 199 194 191 192 194 194 195 195 194 197
250 257 167 122 136 150 166 228 175 158 210 307 227 195 179 170 203 237 312 11 20 328 272 126 57 303 265 213 211 182 187 195 193 197 206 209 210 210 210 210 210 209 207 205 206 208 210 210 212 214 216 217 219 220 221 220 217 215 216 217 216 214 212 211 210 208 208 210 211 210 209 209 209 206 204 201 197 195 193 191 191 192 193 192 191 194
258 262 158 146 157 141 153 242 216 160 139 309 243 193 171 169 202 237 275 38 52 301 284 146 148 270 308 250 217 180 186 195 190 198 205 207 208 208 210 211 211 211 210 209 209 209 210 211 212 213 215 216 219 220 221 222 221 217 217 218 218 217 215 214 212 210 210 212 214 214 214 213 211 207 203 199 197 197 196 192 189 188 189 190 190 191
203 12 116 143 139 136 152 240 219 156 133 236 233 156 147 169 196 213 171 174 221 262 319 357 129 236 304 276 222 170 181 200 201 206 205 204 206 208 211 212 212 211 210 210 209 209 211 213 214 215 215 217 220 221 222 223 223 220 218 218 219 219 218 217 215 214 212 213 216 217 217 218 217 213 207 201 199 199 197 192 187 186 188 191 192 193
207 115 161 158 130 146 190 220 191 153 158 238 209 150 147 172 179 167 156 195 250 29 321 308 113 171 280 286 247 167 180 206 212 211 203 201 204 207 211 213 213 213 212 211 210 210 212 214 216 217 218 220 222 223 224 224 225 223 220 219 219 220 220 219 218 217 215 216 218 219 219 219 220 219 213 205 202 201 199 193 188 186 188 191 196 198
302 114 155 135 116 195 225 237 173 159 198 220 158 149 137 148 152 128 145 172 43 37 266 256 172 166 277 289 259 178 195 215 216 214 206 202 203 207 211 213 214 215 214 214 214 213 214 215 218 219 220 222 223 224 225 226 226 225 223 220 219 221 221 221 221 221 219 218 218 219 220 220 220 221 217 210 205 202 200 197 193 192 192 194 197 202
320 73 117 92 69 245 247 255 174 176 202 156 99 106 84 58 66 72 85 107 75 289 257 235 192 155 288 282 238 196 231 229 214 210 208 205 205 207 211 213 214 214 214 215 216 215 216 216 217 218 219 222 223 224 225 226 226 225 224 221 220 220 221 222 223 224 223 221 220 220 220 221 221 221 221 216 209 205 203 201 198 197 198 198 199 205
355 41 39 342 3 351 338 130 110 164 210 113 104 104 102 20 26 41 4 69 132 251 266 234 167 137 193 272 298 316 319 309 248 219 208 202 205 207 208 211 212 213 214 214 215 216 216 215 216 217 218 220 222 223 224 225 226 226 225 223 221 220 221 222 224 225 226 225 224 222 222 222 222 223 223 222 216 211 209 206 203 203 204 204 203 205
19 40 326 314 0 13 27 103 8 13 42 88 121 103 107 44 32 115 281 154 187 243 270 236 130 138 213 230 346 348 346 341 324 293 257 227 215 210 208 209 211 212 212 213 214 215 215 214 214 215 217 218 219 221 223 224 225 226 225 224 223 221 221 222 224 225 226 227 226 224 223 223 223 224 225 225 222 218 216 212 208 208 208 208 207 206
44 334 350 354 351 359 23 78 8 348 30 48 138 123 129 135 115 189 229 160 209 244 284 318 167 200 251 326 1 357 354 353 356 356 343 305 250 225 215 211 211 211 212 212 213 214 214 214 214 216 217 217 218 220 222 224 225 226 226 225 225 223 222 222 224 226 226 227 228 226 225 224 224 225 225 227 227 223 220 217 212 212 213 213 213 211
116 118 354 9 332 344 8 74 205 210 291 303 185 137 126 148 147 182 202 166 181 224 305 331 204 183 159 144 27 8 2 6 7 5 3 357 334 258 224 216 213 212 213 213 213 214 215 215 215 216 217 217 218 220 221 223 224 225 226 226 226 225 223 222 223 225 227 227 228 227 226 226 225 226 226 227 229 227 224 220 216 216 216 216 218 219
105 157 317 311 289 336 355 321 324 140 199 268 129 97 101 159 156 148 176 176 163 142 92 257 213 214 178 167 16 8 10 14 10 5 4 1 356 331 230 215 214 215 214 214 214 215 216 216 216 216 217 217 218 219 220 222 223 225 226 227 227 227 225 224 223 225 228 229 228 228 227 226 226 227 227 227 229 229 227 224 221 218 218 220 223 226
78 296 311 326 315 337 354 320 3 74 160 241 52 91 197 172 136 120 170 249 78 120 173 266 304 337 329 151 359 358 9 15 10 6 3 357 359 357 301 226 217 215 215 216 215 215 216 216 216 216 216 217 218 218 220 222 223 225 226 227 228 228 227 226 225 225 228 229 230 229 228 227 227 227 227 227 227 229 228 228 227 223 222 223 226 229
101 215 306 350 324 314 338 331 327 26 29 115 102 243 229 132 108 112 123 15 46 124 181 10 42 14 20 348 339 353 11 14 7 4 2 360 1 358 344 315 252 223 218 218 218 217 216 216 216 216 217 217 219 220 221 222 224 225 227 228 229 229 228 227 227 226 228 230 231 231 230 228 228 227 228 227 228 229 229 230 231 231 229 228 228 231
61 51 289 324 282 300 338 6 2 348 6 68 132 268 99 112 119 24 99 136 119 142 131 20 40 49 39 334 331 353 7 9 5 5 7 4 359 351 342 337 320 260 226 220 219 219 217 217 217 216 217 218 219 220 222 223 223 224 226 228 229 231 231 230 229 229 229 231 232 233 233 231 230 229 228 228 229 230 230 231 232 235 236 234 233 233
27 71 277 300 314 318 352 33 33 328 342 22 35 14 33 114 147 95 93 139 153 153 153 69 23 35 13 328 334 349 353 359 4 7 13 9 1 356 346 340 336 304 241 222 219 220 219 218 218 217 217 218 218 219 220 221 221 223 225 227 228 230 231 231 231 230 231 231 233 234 234 233 233 232 231 230 230 231 231 232 233 235 238 238 238 237
18 63 3 306 328 8 28 12 13 339 345 11 33 24 0 347 27 76 54 49 113 136 157 123 76 40 305 331 336 347 347 352 4 6 10 12 9 5 357 352 352 336 258 229 221 219 220 220 219 219 219 219 218 217 218 219 220 222 224 226 228 229 229 230 230 231 232 233 233 234 235 235 234 234 234 234 233 234 234 234 235 236 238 239 240 240
40 74 80 337 352 47 62 308 349 72 52 47 60 33 347 341 44 86 63 346 45 102 140 135 125 190 250 343 336 358 354 347 359 4 4 12 16 15 9 4 5 5 322 241 228 221 219 220 219 219 219 219 218 216 217 218 219 220 222 225 227 228 229 230 231 232 232 233 234 234 235 236 236 236 236 236 236 236 236 237 237 238 238 239 240 242
91 98 76 32 345 149 242 294 356 62 71 65 57 31 354 17 63 102 134 289 6 34 33 106 113 199 224 7 2 360 356 351 0 3 359 2 13 20 19 15 13 16 17 305 236 228 224 221 220 218 218 219 219 217 216 217 218 220 222 225 226 227 229 231 232 233 233 234 235 236 236 236 237 237 237 237 238 238 239 240 241 241 241 241 242 243
57 74 56 8 318 305 287 306 351 22 50 48 25 17 15 356 348 167 167 151 70 20 11 82 105 214 236 2 4 358 1 8 8 4 2 358 7 22 24 22 18 18 23 30 358 230 227 225 223 220 218 219 219 218 217 217 218 220 221 223 224 227 230 231 232 233 233 234 236 237 237 237 238 238 238 239 239 239 240 241 242 244 244 245 245 245
20 64 79 70 12 349 336 331 340 353 25 46 352 356 8 359 359 16 80 64 74 28 57 113 179 230 254 353 2 0 4 17 13 6 7 4 7 23 27 24 22 22 23 29 37 50 206 221 225 225 223 221 219 218 219 219 218 219 220 222 224 226 229 231 232 233 233 235 236 237 238 238 239 239 239 240 241 241 241 242 242 244 246 247 248 248
75 86 101 113 134 164 193 239 271 312 348 12 354 355 2 6 11 22 62 50 81 203 43 134 211 267 315 4 12 4 2 13 10 5 9 8 3 19 28 26 23 25 25 25 29 36 44 75 209 222 225 226 224 221 220 221 220 220 220 222 224 226 228 229 231 232 234 235 236 237 238 239 240 240 241 242 242 243 244 244 244 244 245 247 249 250
94 64 80 120 136 165 179 213 252 295 359 350 359 357 354 357 5 39 85 67 139 140 318 224 220 309 337 5 16 6 2 6 6 4 6 5 360 10 27 28 24 24 27 27 27 29 33 40 49 169 215 223 226 224 223 224 222 221 221 222 223 225 227 229 230 232 233 235 236 237 239 239 241 242 243 244 244 245 245 246 246 247 247 247 248 250
98 47 36 99 104 181 179 223 305 17 71 322 351 350 338 341 359 38 66 224 158 89 302 249 246 344 337 3 16 7 359 1 5 4 2 2 3 12 25 29 26 24 25 26 26 26 28 31 34 43 87 203 218 222 224 226 226 225 224 224 224 225 226 228 230 231 233 235 236 238 240 241 242 243 244 245 246 246 246 247 247 248 249 249 249 249
108 74 332 105 34 332 337 320 349 37 12 314 334 322 311 321 343 9 280 251 173 140 248 264 318 328 333 2 9 11 6 3 5 5 7 13 14 17 24 27 26 24 22 23 23 23 25 28 30 35 43 67 174 206 216 222 226 228 227 227 226 226 227 228 229 231 233 234 237 239 241 242 243 244 244 245 246 247 247 248 248 248 249 250 250 250
99 113 239 123 71 356 352 343 16 48 359 325 308 285 276 277 278 270 263 260 220 218 240 282 312 294 11 4 356 23 21 14 17 15 16 18 15 13 17 21 24 23 20 19 19 19 22 26 28 31 35 44 59 148 198 209 218 224 228 230 229 228 228 228 229 231 232 234 238 240 242 242 243 244 244 245 246 248 248 249 249 249 249 250 251 252
75 114 296 93 81 335 319 336 354 16 254 280 282 277 277 283 285 284 279 291 329 287 299 6 340 280 12 356 349 20 29 24 24 21 17 15 12 11 13 15 20 21 19 17 15 16 19 21 23 25 27 30 34 37 101 201 208 214 221 227 230 231 230 229 229 231 233 235 238 240 241 242 243 244 245 246 247 248 249 250 250 250 250 251 252 252
73 79 348 67 62 293 279 329 322 300 269 279 303 315 314 302 306 302 288 300 346 308 326 18 31 326 345 349 352 13 31 32 24 17 14 11 10 12 11 11 15 18 19 16 12 14 17 17 18 18 17 19 22 24 22 3 215 209 211 217 225 230 231 231 230 232 234 236 238 240 241 242 243 244 245 247 248 249 250 251 251 251 251 252 252 252
107 107 92 86 68 280 279 315 317 354 26 334 314 31 358 271 313 315 298 305 346 70 58 52 33 343 336 348 358 5 21 35 29 19 17 12 9 9 7 7 10 13 17 17 13 13 14 14 12 12 12 12 10 11 13 8 344 227 212 212 217 223 228 231 232 233 235 236 237 239 240 242 243 245 246 248 249 251 252 251 252 252 253 253 254 254
121 106 129 140 101 272 286 326 359 31 37 256 252 283 250 258 291 286 286 331 23 45 88 123 339 340 341 351 360 349 349 23 41 31 25 17 10 8 5 4 6 8 12 16 15 13 11 10 7 6 9 9 3 359 359 357 357 328 234 217 214 217 223 230 233 233 234 236 237 238 239 241 243 244 247 249 251 252 252 253 254 255 256 256 256 255
132 109 117 138 108 262 301 16 31 348 234 246 279 298 255 228 199 242 270 347 50 38 46 78 354 334 340 347 343 333 327 313 42 32 27 20 11 6 3 2 4 6 8 10 12 12 9 7 3 0 4 8 3 357 352 345 348 352 287 228 215 213 217 225 232 234 235 235 236 238 238 240 242 243 245 247 248 251 252 254 255 257 258 259 259 258
140 133 129 128 124 8 1 56 110 255 269 281 310 316 321 45 50 21 320 315 75 60 28 1 342 331 337 345 345 343 336 298 232 9 17 16 9 4 2 359 359 2 4 5 6 7 7 4 2 358 358 2 2 358 354 344 337 348 346 240 222 216 214 218 225 230 233 235 236 237 238 239 240 241 243 243 244 244 246 250 255 258 260 260 260 260
141 139 137 136 179 138 93 196 223 321 320 319 327 324 62 72 37 107 121 270 212 84 55 10 343 332 336 344 347 349 348 311 222 311 360 7 4 0 359 358 357 357 359 359 358 2 3 359 358 356 354 356 357 355 357 353 336 331 341 349 213 219 219 218 221 223 226 229 233 235 237 239 240 240 241 242 243 241 239 241 252 259 263 264 262 260
126 145 155 147 174 125 102 323 334 7 306 264 243 233 178 253 245 184 174 270 142 63 33 18 357 338 337 342 346 349 355 15 199 316 346 353 353 352 352 353 355 354 354 354 353 356 358 353 352 353 352 354 353 348 351 357 346 327 318 321 62 226 217 207 212 218 219 222 227 231 235 238 239 240 241 242 245 245 241 239 242 248 254 264 266 263
74 69 117 117 125 121 118 153 199 188 240 241 220 218 259 277 241 204 333 288 30 30 16 15 358 344 342 340 345 351 358 41 255 319 334 341 343 344 344 344 348 350 349 349 348 350 353 352 351 349 347 350 351 346 345 352 353 342 322 302 296 300 295 173 184 206 215 220 222 225 231 235 238 241 243 244 247 249 247 245 246 247 243 244 252 260
51 35 74 112 156 170 153 174 218 221 245 240 211 214 271 287 148 97 312 275 330 355 4 11 352 344 344 341 344 356 4 351 317 314 324 332 333 333 335 336 339 341 341 343 344 343 346 350 351 345 341 342 344 342 342 344 348 351 349 333 312 293 286 307 344 186 211 228 228 227 228 231 235 240 243 245 247 248 248 248 249 251 249 244 243 252
25 22 98 135 171 188 186 206 253 249 239 219 190 184 209 46 76 150 216 270 332 335 340 351 344 339 339 338 338 330 307 308 312 312 318 324 324 324 323 324 328 331 332 335 339 339 339 343 350 348 341 339 337 334 336 338 341 347 352 350 345 326 288 284 282 223 214 230 234 235 235 233 234 238 241 245 248 248 249 250 250 250 252 254 254 254
133 78 131 144 160 182 181 184 267 288 250 190 164 152 137 129 156 212 276 326 329 320 320 326 326 325 326 323 318 309 303 304 309 312 315 316 318 320 317 314 316 321 324 327 332 337 337 335 340 346 343 339 335 330 329 332 338 344 347 345 348 350 327 290 275 259 246 240 239 241 241 240 240 240 241 243 246 247 247 247 248 248 250 254 257 255
176 161 194 193 164 137 106 142 202 289 218 163 143 125 159 176 221 290 316 322 315 309 311 308 307 311 314 311 308 306 303 302 304 308 311 309 310 314 313 310 310 313 317 322 326 331 333 331 332 337 341 338 332 327 326 327 331 338 343 342 343 345 339 320 291 271 260 252 247 242 239 240 242 243 243 242 241 242 242 241 242 243 245 249 252 253
194 173 184 223 188 139 148 191 210 229 195 170 156 161 208 238 282 301 306 306 306 305 301 295 296 301 302 304 305 304 301 299 298 301 305 305 304 306 308 307 306 306 309 313 318 325 329 329 327 328 333 335 329 323 324 325 326 330 336 337 337 339 337 332 318 296 280 269 255 244 236 236 238 240 243 243 240 237 235 235 237 239 242 247 250 250
215 189 166 196 208 176 194 220 221 185 172 174 188 246 261 270 286 289 288 291 293 292 291 294 296 296 295 298 299 297 296 296 295 296 299 300 299 299 301 302 302 302 303 303 309 317 322 326 326 324 325 327 324 320 322 324 322 322 326 331 332 333 334 333 330 322 311 298 277 255 240 234 234 236 240 241 241 239 237 235 235 237 242 245 247 249
213 173 140 155 256 277 263 247 228 203 200 211 237 263 275 287 289 286 285 283 281 284 291 295 296 295 294 294 294 292 291 291 292 292 292 294 295 294 294 295 295 297 298 296 299 305 312 317 320 320 318 319 319 318 319 322 319 315 317 325 327 326 327 329 330 329 326 322 312 285 255 240 235 234 236 237 238 240 241 240 238 238 242 244 244 246
216 178 170 179 232 272 271 250 218 214 226 233 241 252 269 290 293 285 283 281 282 290 295 295 296 296 293 290 290 291 291 290 290 289 288 289 290 289 288 288 288 292 294 292 292 297 303 307 311 314 314 315 316 315 316 319 317 313 312 317 321 319 319 324 329 328 324 325 327 316 284 254 242 238 237 236 235 237 239 240 239 239 241 242 242 244
183 173 182 193 181 193 259 268 251 245 250 251 255 266 276 285 285 279 286 290 294 300 303 302 301 298 294 291 291 292 292 290 288 288 287 287 288 287 285 283 282 285 288 288 287 288 293 297 302 306 308 310 311 312 313 315 316 313 311 313 316 316 317 322 329 329 324 321 323 320 302 270 253 249 245 239 235 234 236 237 238 239 241 242 243 243
143 159 181 178 190 251 284 274 262 268 276 269 267 272 271 258 260 281 293 299 306 311 312 310 306 300 297 295 294 293 293 291 289 290 289 288 287 286 283 281 280 279 281 282 282 281 284 289 293 297 301 305 308 309 307 308 312 314 314 314 314 316 319 321 325 329 327 320 312 308 301 282 261 257 254 247 240 235 233 234 237 240 243 246 246 245
144 171 173 139 181 257 256 246 230 232 270 266 260 259 249 245 264 284 295 306 315 319 318 314 309 305 300 297 295 295 293 292 291 292 290 288 287 286 282 280 279 276 275 276 276 274 276 280 285 289 293 298 303 306 305 303 303 305 309 312 313 314 318 321 322 324 325 319 306 298 296 287 266 257 255 252 249 243 237 233 234 238 242 244 245 247
191 203 181 173 211 232 241 246 237 227 253 266 266 256 249 252 269 282 297 311 318 321 320 315 309 307 304 300 297 295 294 294 293 292 289 287 287 287 282 278 276 274 273 272 272 270 270 273 279 283 286 291 298 302 303 303 302 299 299 303 308 312 317 322 323 323 323 320 307 296 292 285 269 255 249 248 251 251 246 238 234 234 237 240 241 244
Height
1496 1502 1506 1508 1508 1506 1505 1505 1505 1506 1507 1509 1511 1514 1516 1517 1515 1509 1507 1502 1500 1510 1513 1509 1510 1509 1508 1508 1507 1509 1510 1512 1514 1515 1517 1518 1519 1521 1523 1525 1527 1528 1529 1532 1535 1537 1539 1541 1543 1545 1547 1549 1551 1553 1556 1557 1559 1561 1563 1565 1566 1568 1571 1572 1574 1576 1577 1579 1580 1582 1583 1584 1586 1588 1589 1590 1591 1593 1594 1595 1596 1597 1597 1598 1599 1599
1496 1503 1506 1505 1504 1503 1503 1504 1504 1506 1507 1508 1511 1514 1516 1517 1514 1507 1505 1502 1500 1509 1511 1507 1510 1510 1507 1507 1506 1507 1510 1511 1512 1512 1513 1514 1517 1519 1521 1523 1525 1527 1530 1533 1534 1536 1538 1540 1542 1544 1546 1547 1550 1552 1554 1556 1558 1560 1562 1564 1566 1568 1570 1571 1573 1575 1576 1578 1579 1581 1583 1584 1586 1588 1589 1591 1592 1593 1594 1595 1596 1597 1597 1598 1599 1600
1501 1504 1503 1502 1501 1502 1503 1504 1505 1506 1507 1509 1511 1514 1516 1515 1512 1507 1504 1502 1501 1508 1511 1508 1511 1509 1504 1503 1504 1504 1506 1507 1508 1508 1510 1512 1515 1517 1518 1521 1523 1526 1529 1530 1532 1534 1536 1539 1541 1543 1544 1546 1548 1550 1552 1555 1557 1559 1560 1562 1565 1567 1568 1570 1572 1574 1576 1578 1579 1581 1583 1585 1587 1588 1589 1591 1592 1593 1593 1594 1596 1596 1597 1598 1599 1600
1506 1502 1498 1498 1500 1501 1503 1504 1505 1507 1507 1509 1511 1515 1516 1513 1513 1511 1507 1504 1503 1506 1508 1508 1510 1508 1503 1503 1502 1502 1503 1505 1507 1509 1511 1513 1514 1514 1516 1518 1521 1524 1526 1528 1530 1532 1534 1537 1539 1541 1543 1544 1547 1549 1551 1553 1555 1557 1559 1561 1563 1565 1567 1569 1571 1573 1576 1578 1580 1581 1583 1585 1587 1588 1589 1590 1591 1592 1593 1594 1595 1596 1597 1598 1599 1600
1502 1497 1494 1496 1499 1500 1502 1504 1505 1508 1509 1509 1509 1512 1514 1511 1512 1512 1508 1506 1505 1505 1504 1506 1514 1510 1504 1504 1502 1501 1502 1504 1507 1510 1512 1513 1513 1515 1516 1518 1520 1521 1524 1526 1528 1530 1532 1535 1537 1539 1541 1543 1545 1546 1548 1551 1553 1555 1557 1560 1562 1564 1566 1568 1570 1573 1575 1577 1579 1580 1582 1584 1586 1587 1588 1589 1590 1591 1592 1593 1595 1596 1597 1598 1599 1600
1498 1494 1493 1496 1499 1500 1502 1504 1504 1507 1511 1511 1507 1506 1508 1508 1509 1509 1508 1509 1512 1512 1504 1507 1522 1517 1505 1505 1503 1500 1502 1504 1505 1507 1509 1510 1512 1515 1516 1517 1518 1520 1522 1524 1526 1528 1530 1533 1535 1537 1539 1541 1542 1544 1547 1550 1552 1554 1557 1559 1561 1563 1565 1567 1569 1572 1574 1576 1577 1579 1581 1582 1584 1585 1586 1587 1589 1590 1592 1593 1595 1596 1597 1598 1599 1600
1495 1493 1492 1495 1498 1500 1502 1504 1503 1504 1511 1514 1505 1500 1504 1506 1507 1508 1510 1513 1517 1516 1505 1505 1520 1520 1509 1506 1503 1501 1503 1504 1504 1504 1504 1507 1509 1511 1513 1513 1515 1518 1520 1523 1525 1527 1529 1530 1533 1534 1536 1538 1540 1543 1546 1548 1551 1553 1555 1557 1559 1562 1564 1566 1568 1570 1573 1574 1576 1578 1579 1581 1582 1584 1585 1587 1589 1590 1592 1593 1595 1596 1597 1598 1599 1599
1493 1493 1494 1495 1497 1500 1503 1504 1501 1501 1509 1511 1500 1498 1503 1504 1506 1508 1509 1514 1514 1511 1509 1505 1511 1520 1516 1508 1502 1501 1505 1506 1503 1501 1501 1503 1506 1507 1509 1511 1512 1515 1517 1520 1523 1525 1526 1527 1529 1531 1533 1536 1539 1542 1544 1546 1549 1551 1554 1556 1558 1560 1562 1565 1567 1569 1571 1573 1575 1576 1578 1579 1581 1583 1585 1587 1589 1590 1592 1593 1594 1595 1596 1597 1598 1599
1491 1493 1495 1495 1497 1500 1500 1498 1497 1499 1504 1502 1495 1497 1500 1500 1504 1505 1508 1513 1511 1513 1517 1511 1510 1522 1522 1508 1502 1501 1504 1507 1502 1498 1498 1499 1502 1505 1506 1508 1510 1512 1514 1517 1519 1521 1523 1525 1526 1529 1532 1535 1538 1540 1542 1545 1547 1550 1552 1555 1557 1559 1561 1563 1565 1567 1569 1571 1573 1575 1577 1578 1580 1582 1585 1587 1588 1590 1591 1592 1594 1595 1596 1597 1598 1599
1491 1492 1493 1494 1498 1498 1495 1493 1493 1496 1498 1495 1494 1497 1497 1500 1502 1504 1509 1511 1512 1519 1521 1513 1511 1522 1524 1511 1506 1507 1506 1504 1498 1495 1497 1497 1500 1502 1503 1506 1508 1510 1513 1514 1516 1518 1520 1522 1524 1527 1530 1533 1536 1538 1541 1543 1546 1548 1550 1553 1555 1557 1559 1561 1564 1566 1568 1570 1572 1574 1576 1577 1579 1581 1583 1586 1587 1589 1590 1591 1593 1594 1595 1596 1597 1598
1491 1491 1491 1494 1497 1495 1492 1492 1492 1492 1493 1492 1495 1497 1500 1504 1503 1507 1511 1509 1519 1526 1517 1508 1508 1517 1524 1514 1507 1507 1502 1497 1495 1495 1496 1495 1497 1498 1499 1502 1504 1507 1509 1511 1514 1516 1518 1520 1523 1526 1528 1530 1533 1536 1539 1541 1543 1546 1548 1550 1552 1555 1557 1559 1562 1564 1566 1569 1570 1572 1574 1576 1578 1580 1582 1584 1585 1587 1589 1590 1591 1593 1595 1596 1597 1598
1493 1493 1494 1495 1495 1494 1491 1491 1492 1491 1492 1493 1497 1499 1505 1511 1509 1513 1516 1515 1529 1530 1512 1507 1509 1515 1525 1518 1508 1506 1498 1495 1495 1494 1492 1490 1490 1491 1493 1496 1498 1501 1504 1507 1510 1513 1515 1519 1521 1523 1525 1527 1531 1533 1535 1538 1541 1543 1545 1548 1550 1553 1555 1557 1560 1562 1564 1566 1568 1570 1573 1575 1577 1578 1580 1582 1584 1586 1587 1589 1591 1592 1594 1595 1596 1597
1497 1498 1497 1495 1494 1494 1492 1492 1493 1493 1493 1496 1498 1500 1510 1520 1522 1526 1527 1527 1531 1523 1509 1511 1512 1515 1522 1516 1511 1509 1500 1498 1496 1492 1491 1488 1486 1487 1489 1491 1494 1497 1500 1502 1505 1508 1512 1515 1517 1519 1521 1524 1527 1529 1532 1535 1538 1540 1543 1545 1548 1550 1553 1555 1557 1560 1562 1564 1566 1568 1571 1573 1575 1577 1579 1580 1582 1584 1586 1588 1590 1591 1593 1594 1595 1596
1503 1501 1499 1497 1496 1495 1496 1497 1499 1497 1496 1498 1499 1500 1510 1521 1529 1535 1537 1536 1531 1518 1509 1510 1512 1515 1518 1513 1510 1507 1503 1501 1497 1493 1492 1490 1488 1488 1488 1490 1492 1494 1497 1499 1501 1504 1507 1510 1512 1515 1517 1520 1523 1526 1529 1532 1535 1538 1540 1543 1545 1548 1551 1553 1555 1557 1560 1562 1564 1567 1569 1571 1573 1575 1577 1579 1581 1583 1585 1587 1589 1590 1592 1593 1594 1595
1512 1511 1506 1504 1503 1500 1499 1500 1503 1501 1500 1500 1499 1498 1503 1510 1520 1527 1528 1527 1524 1518 1513 1511 1512 1512 1513 1512 1509 1505 1504 1501 1497 1494 1491 1489 1488 1487 1488 1491 1492 1493 1494 1496 1498 1500 1502 1505 1508 1511 1514 1517 1519 1522 1526 1529 1532 1534 1537 1540 1542 1545 1548 1551 1553 1555 1557 1560 1562 1565 1567 1569 1571 1574 1576 1578 1580 1582 1584 1586 1588 1589 1591 1592 1594 1595
1517 1518 1511 1507 1505 1503 1502 1500 1500 1501 1501 1501 1499 1500 1503 1506 1510 1514 1517 1515 1513 1517 1519 1513 1509 1506 1504 1505 1503 1501 1502 1499 1496 1493 1490 1489 1487 1485 1486 1488 1489 1491 1492 1494 1496 1497 1499 1502 1505 1508 1510 1513 1516 1519 1522 1525 1528 1530 1534 1537 1540 1543 1546 1549 1551 1553 1555 1558 1560 1563 1565 1567 1570 1572 1574 1576 1578 1580 1582 1584 1586 1588 1590 1592 1593 1595
1519 1519 1513 1507 1504 1501 1502 1502 1499 1501 1502 1501 1501 1504 1505 1505 1507 1510 1516 1515 1511 1516 1520 1516 1515 1512 1505 1502 1501 1501 1500 1498 1496 1495 1493 1493 1490 1487 1487 1486 1487 1488 1489 1491 1492 1493 1496 1499 1501 1504 1506 1509 1512 1515 1518 1520 1524 1527 1531 1535 1538 1541 1544 1546 1549 1551 1554 1556 1558 1561 1563 1565 1568 1570 1572 1574 1576 1578 1580 1583 1585 1587 1589 1590 1592 1594
1519 1519 1515 1512 1508 1502 1501 1501 1499 1499 1501 1502 1504 1506 1505 1504 1507 1509 1514 1519 1518 1519 1522 1524 1527 1528 1522 1516 1510 1505 1503 1502 1501 1499 1497 1494 1491 1490 1489 1488 1487 1487 1486 1488 1489 1490 1493 1495 1498 1500 1503 1506 1508 1511 1514 1517 1521 1525 1529 1532 1535 1538 1541 1544 1547 1549 1552 1554 1556 1558 1561 1563 1566 1567 1570 1572 1574 1577 1579 1581 1583 1585 1587 1589 1590 1592
1520 1520 1517 1513 1511 1507 1501 1500 1502 1502 1500 1501 1504 1505 1505 1508 1511 1510 1514 1521 1522 1524 1529 1531 1532 1533 1534 1531 1520 1512 1510 1509 1507 1503 1499 1497 1495 1493 1491 1488 1486 1485 1485 1485 1486 1489 1491 1492 1494 1496 1499 1502 1505 1508 1511 1515 1519 1522 1525 1529 1532 1535 1538 1542 1545 1547 1550 1552 1554 1556 1558 1561 1563 1565 1568 1570 1572 1574 1576 1578 1581 1583 1585 1587 1589 1590
1520 1521 1520 1513 1509 1509 1506 1508 1516 1516 1507 1503 1504 1506 1507 1509 1511 1512 1515 1519 1519 1523 1531 1534 1536 1536 1533 1529 1524 1519 1516 1512 1510 1507 1503 1501 1500 1497 1493 1489 1485 1482 1482 1482 1482 1484 1487 1489 1491 1493 1496 1499 1501 1505 1509 1512 1516 1519 1522 1526 1529 1533 1536 1539 1542 1544 1547 1549 1552 1554 1556 1559 1561 1563 1566 1568 1570 1572 1574 1576 1578 1580 1583 1585 1587 1589
1520 1523 1525 1518 1511 1514 1519 1522 1527 1526 1519 1514 1515 1518 1519 1516 1514 1514 1520 1523 1521 1523 1528 1533 1541 1542 1530 1524 1523 1521 1517 1513 1511 1510 1506 1504 1501 1497 1494 1490 1483 1478 1477 1477 1477 1479 1483 1487 1490 1493 1496 1498 1500 1504 1507 1510 1513 1516 1519 1522 1526 1530 1533 1536 1539 1542 1544 1547 1549 1552 1554 1556 1559 1561 1563 1565 1568 1569 1571 1574 1576 1578 1580 1583 1585 1587
1523 1526 1527 1525 1523 1525 1529 1528 1525 1525 1525 1523 1524 1528 1528 1524 1521 1519 1524 1528 1526 1527 1529 1532 1540 1539 1527 1522 1522 1520 1518 1515 1512 1511 1508 1504 1501 1497 1494 1489 1483 1477 1474 1475 1477 1479 1481 1484 1488 1493 1496 1499 1500 1502 1504 1507 1510 1513 1516 1519 1523 1526 1529 1532 1535 1538 1542 1544 1547 1549 1551 1554 1556 1558 1561 1563 1565 1567 1569 1571 1573 1575 1578 1580 1582 1584
1525 1527 1528 1530 1532 1531 1529 1527 1526 1525 1524 1523 1526 1529 1528 1527 1528 1528 1528 1530 1530 1531 1531 1531 1536 1534 1524 1520 1520 1519 1518 1516 1513 1512 1509 1505 1501 1498 1493 1488 1484 1478 1474 1475 1478 1481 1483 1485 1487 1491 1494 1497 1499 1500 1502 1504 1507 1510 1512 1516 1519 1522 1525 1529 1532 1536 1539 1542 1544 1546 1549 1552 1554 1556 1558 1560 1562 1564 1566 1568 1571 1573 1575 1577 1579 1581
1526 1531 1531 1531 1533 1530 1526 1526 1527 1525 1525 1527 1529 1530 1530 1530 1531 1530 1529 1530 1533 1536 1534 1533 1534 1529 1522 1519 1519 1518 1517 1516 1514 1511 1509 1506 1502 1498 1495 1490 1486 1482 1478 1476 1477 1481 1484 1487 1489 1490 1492 1494 1496 1498 1500 1502 1504 1507 1510 1513 1516 1519 1522 1526 1529 1533 1536 1538 1541 1544 1546 1549 1551 1553 1555 1557 1559 1561 1563 1566 1568 1570 1572 1574 1576 1578
1528 1536 1535 1533 1537 1537 1532 1530 1529 1527 1530 1534 1535 1533 1533 1532 1530 1529 1529 1530 1535 1540 1539 1536 1532 1526 1522 1521 1519 1517 1516 1515 1514 1512 1510 1508 1504 1500 1497 1494 1491 1488 1483 1480 1479 1480 1484 1487 1489 1491 1492 1493 1495 1497 1499 1500 1502 1505 1507 1510 1513 1516 1520 1523 1526 1530 1532 1535 1538 1541 1543 1545 1548 1550 1552 1554 1556 1558 1560 1563 1565 1567 1569 1571 1573 1575
1530 1538 1537 1533 1537 1540 1540 1539 1537 1537 1538 1538 1539 1537 1535 1534 1532 1531 1531 1533 1538 1543 1541 1538 1532 1526 1523 1523 1521 1519 1516 1514 1513 1512 1510 1508 1506 1503 1500 1498 1497 1493 1489 1487 1484 1483 1484 1485 1486 1489 1491 1493 1495 1497 1499 1500 1502 1503 1505 1508 1510 1514 1517 1520 1523 1526 1529 1532 1535 1537 1540 1542 1544 1546 1549 1551 1553 1555 1558 1560 1562 1564 1565 1568 1570 1571
1532 1539 1539 1537 1537 1540 1543 1543 1541 1542 1542 1541 1542 1540 1537 1537 1535 1533 1535 1536 1539 1542 1539 1534 1532 1529 1527 1526 1526 1523 1520 1517 1515 1513 1511 1509 1507 1505 1502 1501 1501 1498 1494 1492 1489 1487 1486 1485 1485 1486 1488 1491 1494 1496 1498 1500 1502 1504 1505 1507 1509 1512 1514 1517 1521 1523 1526 1529 1531 1533 1536 1538 1541 1543 1546 1548 1550 1553 1555 1557 1559 1560 1562 1564 1566 1568
1534 1540 1541 1540 1541 1542 1543 1542 1540 1541 1543 1543 1544 1542 1539 1538 1536 1535 1536 1536 1538 1540 1535 1531 1532 1533 1531 1530 1530 1527 1524 1522 1519 1516 1515 1512 1510 1507 1504 1503 1502 1500 1497 1495 1493 1491 1489 1488 1487 1486 1487 1489 1492 1494 1497 1499 1500 1502 1504 1506 1508 1510 1512 1515 1518 1520 1523 1525 1527 1530 1532 1535 1538 1540 1543 1545 1548 1550 1552 1554 1556 1557 1559 1561 1562 1564
1536 1542 1542 1541 1542 1543 1542 1542 1541 1541 1542 1543 1543 1542 1540 1538 1537 1538 1537 1535 1537 1538 1534 1531 1533 1534 1534 1533 1531 1529 1527 1525 1522 1520 1517 1514 1512 1509 1506 1505 1504 1502 1501 1499 1497 1496 1494 1492 1491 1489 1488 1489 1490 1492 1495 1497 1499 1501 1502 1504 1506 1508 1510 1512 1515 1517 1519 1522 1524 1526 1529 1532 1535 1537 1540 1542 1544 1547 1549 1551 1553 1554 1556 1557 1558 1560
1536 1541 1542 1542 1544 1544 1544 1544 1543 1542 1543 1542 1541 1540 1539 1538 1537 1537 1536 1533 1534 1535 1533 1533 1533 1533 1534 1534 1531 1530 1529 1527 1524 1521 1518 1515 1514 1512 1510 1508 1507 1505 1504 1503 1501 1500 1498 1496 1494 1492 1491 1490 1490 1491 1493 1494 1497 1498 1500 1502 1504 1506 1508 1510 1512 1514 1516 1518 1521 1523 1527 1529 1532 1534 1537 1539 1541 1543 1545 1547 1549 1551 1552 1554 1555 1557
1536 1541 1542 1542 1544 1545 1546 1545 1544 1544 1544 1543 1540 1538 1539 1538 1536 1536 1534 1533 1533 1534 1534 1534 1533 1533 1533 1533 1531 1531 1530 1527 1524 1522 1519 1518 1517 1515 1513 1512 1509 1508 1506 1505 1504 1503 1500 1498 1496 1494 1493 1492 1492 1492 1492 1493 1494 1495 1498 1500 1502 1503 1505 1507 1509 1511 1513 1515 1518 1521 1524 1526 1528 1531 1533 1535 1537 1539 1542 1544 1546 1547 1549 1550 1552 1553
1536 1541 1543 1542 1544 1546 1546 1545 1544 1543 1542 1542 1541 1539 1539 1539 1537 1536 1535 1534 1535 1537 1536 1536 1536 1536 1535 1533 1532 1531 1529 1528 1526 1524 1522 1521 1519 1517 1516 1514 1511 1509 1508 1507 1505 1504 1502 1500 1498 1497 1496 1495 1494 1494 1493 1493 1493 1493 1495 1497 1499 1501 1503 1504 1506 1508 1510 1512 1515 1518 1520 1523 1525 1527 1529 1531 1533 1536 1538 1540 1542 1544 1545 1547 1548 1550
1538 1540 1542 1545 1546 1546 1545 1544 1544 1541 1540 1541 1541 1540 1540 1538 1537 1537 1535 1534 1535 1536 1537 1538 1538 1537 1535 1533 1533 1532 1530 1530 1528 1526 1524 1522 1520 1518 1517 1516 1513 1511 1509 1508 1506 1505 1504 1503 1502 1501 1499 1497 1496 1496 1495 1494 1493 1493 1493 1494 1496 1498 1500 1502 1503 1505 1507 1509 1512 1514 1517 1519 1522 1523 1526 1528 1530 1532 1535 1536 1538 1540 1542 1543 1545 1546
1539 1539 1542 1545 1546 1546 1545 1543 1543 1542 1542 1541 1539 1539 1539 1538 1538 1537 1535 1534 1535 1535 1535 1537 1536 1535 1534 1533 1533 1532 1531 1530 1530 1528 1526 1524 1522 1520 1518 1516 1514 1512 1510 1509 1507 1506 1506 1505 1504 1503 1501 1499 1498 1497 1497 1496 1494 1493 1492 1492 1493 1495 1497 1499 1500 1502 1504 1506 1508 1511 1513 1516 1517 1519 1522 1524 1527 1529 1531 1532 1534 1536 1538 1540 1542 1543
1539 1540 1543 1546 1546 1547 1546 1544 1544 1544 1542 1539 1538 1538 1537 1536 1537 1536 1534 1535 1536 1535 1535 1536 1535 1534 1533 1533 1532 1532 1530 1529 1529 1527 1526 1525 1523 1521 1519 1517 1514 1512 1510 1509 1508 1507 1506 1505 1504 1503 1502 1500 1499 1498 1497 1496 1495 1493 1492 1491 1491 1493 1494 1496 1498 1499 1501 1503 1505 1507 1510 1512 1513 1515 1517 1520 1522 1524 1526 1528 1531 1533 1535 1537 1538 1539
1538 1540 1543 1546 1548 1548 1549 1548 1546 1544 1540 1538 1538 1538 1536 1535 1536 1536 1536 1535 1536 1536 1536 1536 1535 1534 1533 1532 1531 1529 1527 1526 1526 1526 1525 1525 1523 1521 1519 1517 1515 1513 1512 1510 1509 1507 1507 1506 1505 1504 1502 1501 1500 1499 1497 1496 1495 1494 1492 1490 1490 1491 1492 1494 1496 1497 1499 1500 1502 1504 1506 1508 1510 1512 1514 1516 1517 1518 1520 1523 1526 1529 1532 1534 1536 1536
1537 1539 1541 1546 1549 1549 1550 1550 1547 1545 1542 1538 1538 1538 1538 1538 1538 1538 1538 1536 1534 1535 1536 1535 1535 1534 1532 1531 1530 1528 1525 1524 1525 1525 1524 1523 1523 1521 1520 1518 1516 1514 1513 1512 1510 1509 1508 1507 1506 1505 1503 1502 1501 1500 1498 1496 1495 1494 1492 1491 1490 1490 1491 1492 1493 1495 1496 1498 1499 1501 1503 1504 1506 1508 1510 1512 1513 1513 1514 1516 1518 1522 1527 1531 1534 1534
1535 1537 1538 1543 1548 1549 1551 1552 1552 1551 1546 1539 1538 1538 1538 1538 1537 1538 1540 1537 1533 1535 1535 1534 1534 1533 1532 1531 1530 1527 1525 1524 1525 1525 1523 1522 1521 1520 1519 1518 1516 1514 1513 1511 1510 1509 1507 1506 1505 1505 1504 1502 1501 1500 1499 1497 1496 1494 1492 1490 1489 1489 1490 1490 1491 1492 1494 1495 1496 1498 1500 1502 1503 1505 1506 1508 1509 1511 1512 1513 1513 1515 1518 1523 1528 1531
1537 1538 1537 1541 1547 1549 1550 1552 1554 1551 1544 1537 1537 1537 1537 1537 1536 1538 1541 1538 1533 1534 1535 1534 1533 1533 1532 1531 1530 1527 1527 1528 1528 1525 1522 1522 1520 1519 1518 1517 1515 1514 1512 1511 1510 1509 1507 1506 1504 1503 1503 1502 1501 1499 1498 1498 1496 1494 1492 1489 1488 1487 1488 1488 1489 1490 1492 1493 1494 1495 1497 1498 1500 1501 1503 1504 1506 1508 1511 1512 1513 1513 1512 1514 1519 1523
1538 1539 1539 1542 1545 1546 1548 1550 1550 1546 1538 1535 1535 1536 1536 1535 1535 1540 1543 1537 1532 1534 1534 1533 1533 1533 1531 1531 1530 1529 1529 1530 1529 1525 1523 1522 1520 1519 1518 1517 1515 1514 1512 1511 1510 1508 1507 1506 1503 1502 1502 1501 1501 1500 1499 1499 1498 1495 1492 1490 1488 1488 1489 1489 1489 1490 1492 1493 1493 1493 1493 1495 1497 1498 1500 1501 1503 1504 1507 1509 1512 1512 1511 1510 1512 1516
1541 1542 1542 1543 1543 1543 1545 1547 1547 1541 1534 1532 1533 1534 1534 1535 1538 1543 1541 1534 1532 1533 1533 1532 1532 1532 1531 1531 1530 1529 1529 1528 1528 1526 1524 1522 1520 1519 1518 1516 1515 1514 1513 1512 1510 1508 1507 1505 1504 1503 1502 1501 1501 1502 1501 1500 1498 1494 1491 1489 1488 1488 1489 1490 1490 1490 1491 1491 1491 1491 1491 1491 1493 1494 1496 1498 1500 1501 1503 1505 1507 1508 1508 1508 1509 1510
1542 1544 1545 1545 1544 1545 1545 1546 1547 1540 1531 1528 1531 1532 1533 1536 1539 1538 1533 1530 1532 1532 1531 1531 1531 1530 1530 1530 1529 1528 1527 1526 1525 1525 1523 1522 1521 1519 1517 1516 1514 1513 1512 1511 1510 1508 1507 1505 1504 1503 1502 1501 1501 1501 1501 1498 1495 1492 1490 1488 1487 1487 1488 1489 1489 1489 1489 1489 1489 1490 1489 1489 1490 1491 1492 1494 1496 1497 1498 1500 1502 1503 1504 1505 1505 1506
1536 1539 1543 1544 1544 1548 1551 1552 1549 1539 1528 1526 1530 1531 1532 1533 1532 1529 1528 1529 1530 1530 1530 1530 1529 1529 1529 1528 1527 1526 1525 1523 1522 1522 1522 1521 1520 1519 1517 1515 1513 1512 1510 1509 1509 1508 1506 1504 1503 1502 1501 1501 1501 1500 1499 1496 1493 1490 1488 1487 1487 1486 1487 1487 1487 1487 1487 1487 1487 1488 1487 1487 1487 1488 1489 1490 1491 1493 1494 1495 1497 1498 1499 1501 1502 1502
1533 1533 1537 1538 1538 1542 1547 1546 1537 1527 1523 1524 1526 1528 1529 1529 1527 1526 1527 1527 1527 1528 1528 1528 1527 1527 1527 1525 1524 1524 1522 1521 1520 1519 1519 1519 1518 1518 1517 1515 1513 1511 1510 1508 1507 1507 1505 1503 1501 1501 1501 1500 1500 1500 1498 1495 1491 1489 1487 1486 1486 1486 1486 1486 1486 1485 1485 1485 1485 1485 1485 1484 1484 1485 1486 1487 1488 1489 1490 1491 1492 1493 1495 1497 1498 1498
1529 1528 1529 1530 1530 1531 1531 1529 1524 1521 1522 1523 1523 1524 1525 1525 1525 1526 1525 1525 1525 1526 1526 1525 1525 1525 1524 1523 1522 1520 1519 1519 1517 1516 1516 1515 1515 1515 1515 1514 1513 1511 1509 1507 1506 1505 1504 1502 1500 1500 1500 1500 1501 1500 1497 1494 1491 1488 1486 1485 1484 1485 1484 1484 1483 1483 1482 1482 1482 1481 1481 1481 1481 1482 1482 1484 1484 1485 1485 1486 1487 1488 1490 1492 1493 1493
1525 1526 1527 1527 1528 1526 1522 1520 1521 1521 1521 1521 1521 1522 1523 1523 1523 1523 1523 1523 1523 1523 1523 1523 1522 1522 1522 1521 1519 1517 1516 1516 1514 1513 1513 1512 1511 1512 1512 1511 1511 1510 1508 1506 1505 1504 1503 1501 1500 1500 1500 1500 1500 1499 1496 1493 1490 1488 1486 1484 1484 1484 1483 1482 1481 1479 1479 1478 1478 1478 1477 1477 1478 1479 1479 1480 1481 1481 1482 1482 1483 1484 1485 1486 1487 1488
1524 1525 1526 1526 1527 1526 1521 1517 1518 1519 1518 1519 1520 1520 1520 1521 1521 1521 1521 1521 1521 1521 1521 1520 1520 1519 1519 1518 1516 1514 1513 1513 1512 1510 1509 1509 1508 1508 1508 1508 1508 1508 1507 1505 1504 1503 1501 1500 1500 1499 1498 1498 1497 1496 1494 1491 1489 1488 1486 1484 1483 1483 1482 1480 1478 1476 1475 1474 1474 1475 1474 1474 1474 1475 1476 1476 1477 1477 1478 1478 1479 1480 1480 1481 1481 1482
1522 1522 1524 1525 1525 1524 1520 1516 1517 1517 1517 1518 1518 1517 1518 1519 1519 1519 1519 1519 1518 1518 1518 1517 1517 1517 1515 1514 1514 1512 1510 1509 1509 1507 1505 1505 1505 1504 1504 1504 1504 1504 1504 1503 1502 1501 1500 1499 1498 1497 1496 1495 1494 1493 1492 1490 1488 1487 1486 1484 1482 1481 1480 1477 1475 1473 1472 1471 1472 1473 1473 1472 1472 1473 1473 1473 1473 1473 1474 1474 1474 1475 1475 1475 1476 1477
1520 1521 1521 1522 1523 1522 1518 1515 1515 1517 1516 1515 1515 1515 1515 1516 1517 1517 1517 1517 1516 1516 1515 1515 1515 1514 1513 1512 1511 1509 1507 1505 1505 1504 1502 1501 1501 1501 1500 1500 1500 1500 1501 1501 1500 1499 1498 1496 1496 1495 1494 1493 1492 1490 1490 1488 1487 1486 1485 1483 1481 1479 1477 1474 1473 1471 1470 1469 1469 1470 1470 1470 1470 1471 1470 1470 1469 1469 1470 1470 1470 1470 1470 1471 1472 1473
1518 1518 1519 1521 1521 1519 1514 1511 1512 1514 1513 1512 1512 1513 1513 1514 1514 1514 1514 1514 1514 1513 1513 1512 1511 1510 1510 1509 1507 1506 1503 1501 1501 1501 1499 1497 1496 1497 1497 1496 1496 1496 1496 1497 1497 1497 1495 1494 1493 1492 1492 1491 1490 1488 1487 1486 1484 1483 1483 1482 1480 1477 1474 1472 1470 1469 1468 1467 1466 1467 1467 1467 1467 1468 1467 1466 1465 1465 1465 1465 1466 1466 1466 1467 1468 1469
1511 1511 1513 1515 1514 1510 1507 1507 1509 1511 1510 1509 1510 1511 1511 1512 1512 1512 1512 1512 1511 1511 1510 1509 1508 1507 1506 1505 1504 1503 1500 1498 1497 1497 1494 1492 1492 1493 1493 1492 1491 1491 1491 1493 1493 1493 1493 1492 1491 1490 1489 1488 1487 1485 1484 1482 1480 1481 1482 1482 1479 1476 1473 1470 1468 1467 1466 1465 1464 1464 1465 1465 1465 1465 1464 1462 1461 1461 1461 1460 1461 1462 1462 1463 1464 1465